| time (UTC) | temp F | wind direction | speed knots | gust knots | rain 1hr in | rain 24hr in | rain mn in | humidity % | barometer mb |
| 20260508131528 | 79 | 226 | 0.0 | 0.0 | 0.00 | 0.00 | 0.00 | 37 | 993.8 |
| 20260508130030 | 80 | 260 | 0.0 | 0.0 | 0.00 | 0.00 | 0.00 | 37 | 993.8 |
| 20260508124533 | 80 | 253 | 0.0 | 0.0 | 0.00 | 0.00 | 0.00 | 37 | 994.0 |
| 20260508123042 | 80 | 232 | 0.0 | 0.0 | 0.00 | 0.00 | 0.00 | 38 | 994.1 |
| 20260508121530 | 80 | 289 | 0.0 | 0.0 | 0.00 | 0.00 | 0.00 | 38 | 994.2 |
| 20260508120023 | 80 | 288 | 0.0 | 0.0 | 0.00 | 0.00 | 0.00 | 37 | 994.4 |
| 20260508114622 | 80 | 302 | 0.0 | 0.0 | 0.00 | 0.00 | 0.00 | 36 | 994.3 |
| 20260508113021 | 80 | 265 | 0.0 | 0.0 | 0.00 | 0.00 | 0.00 | 37 | 994.4 |
| 20260508111518 | 80 | 260 | 0.0 | 0.0 | 0.00 | 0.00 | 0.00 | 37 | 994.4 |
| 20260508110017 | 80 | 241 | 0.0 | 0.0 | 0.00 | 0.00 | 0.00 | 37 | 994.7 |
| 20260508104515 | 80 | 252 | 0.0 | 0.0 | 0.00 | 0.00 | 0.00 | 38 | 994.7 |
| 20260508103016 | 80 | 270 | 0.0 | 0.0 | 0.00 | 0.00 | 0.00 | 37 | 994.8 |
| 20260508101512 | 81 | 260 | 0.0 | 0.0 | 0.00 | 0.00 | 0.00 | 38 | 994.9 |
| 20260508100010 | 80 | 265 | 0.0 | 0.0 | 0.00 | 0.00 | 0.00 | 37 | 994.8 |
| 20260508094509 | 80 | 265 | 0.0 | 0.0 | 0.00 | 0.00 | 0.00 | 37 | 994.8 |
| 20260508093010 | 80 | 270 | 0.0 | 0.0 | 0.00 | 0.00 | 0.00 | 39 | 994.6 |
| 20260508091504 | 81 | 226 | 0.0 | 0.0 | 0.00 | 0.00 | 0.00 | 38 | 994.8 |
| 20260508090003 | 81 | 265 | 0.0 | 0.0 | 0.00 | 0.00 | 0.00 | 38 | 994.8 |
| 20260508084500 | 81 | 233 | 0.0 | 0.0 | 0.00 | 0.00 | 0.00 | 37 | 994.9 |
| 20260508083059 | 82 | 270 | 0.0 | 0.0 | 0.00 | 0.00 | 0.00 | 37 | 994.7 |
| 20260508081606 | 82 | 260 | 0.0 | 0.0 | 0.00 | 0.00 | 0.00 | 37 | 994.9 |
| 20260508080059 | 83 | 297 | 0.0 | 0.0 | 0.00 | 0.00 | 0.00 | 35 | 994.9 |
| 20260508074551 | 82 | 346 | 0.0 | 0.0 | 0.00 | 0.00 | 0.00 | 33 | 995.0 |
| 20260508073105 | 81 | 265 | 0.0 | 0.0 | 0.00 | 0.00 | 0.00 | 37 | 994.8 |
| 20260508071548 | 82 | 270 | 0.0 | 0.0 | 0.00 | 0.00 | 0.00 | 37 | 994.8 |
| 20260508070049 | 81 | 265 | 0.0 | 0.0 | 0.00 | 0.00 | 0.00 | 37 | 994.8 |
| 20260508064552 | 81 | 253 | 0.0 | 0.0 | 0.00 | 0.00 | 0.00 | 40 | 994.9 |
| 20260508063053 | 82 | 305 | 0.0 | 0.0 | 0.00 | 0.00 | 0.00 | 38 | 994.9 |
| 20260508061546 | 81 | 265 | 0.0 | 0.0 | 0.00 | 0.00 | 0.00 | 39 | 994.7 |
| 20260508060100 | 81 | 265 | 0.0 | 0.0 | 0.00 | 0.00 | 0.00 | 38 | 994.8 |
| 20260508054542 | 81 | 265 | 0.0 | 0.0 | 0.00 | 0.00 | 0.00 | 40 | 994.9 |
| 20260508053040 | 80 | 265 | 0.0 | 0.0 | 0.00 | 0.00 | 0.00 | 40 | 994.9 |
| 20260508051550 | 79 | 265 | 0.0 | 0.0 | 0.00 | 0.00 | 0.00 | 42 | 994.8 |
| 20260508050034 | 77 | 274 | 0.0 | 0.0 | 0.00 | 0.00 | 0.00 | 44 | 994.7 |
| 20260508044532 | 77 | 287 | 0.0 | 0.0 | 0.00 | 0.00 | 0.00 | 43 | 994.8 |
| 20260508043028 | 76 | 265 | 0.0 | 0.0 | 0.00 | 0.00 | 0.00 | 45 | 994.7 |
| 20260508041525 | 74 | 265 | 0.0 | 0.0 | 0.00 | 0.00 | 0.00 | 48 | 994.5 |
| 20260508040019 | 72 | 265 | 0.0 | 0.0 | 0.00 | 0.00 | 0.00 | 50 | 994.5 |
| 20260508034517 | 69 | 265 | 0.0 | 0.0 | 0.00 | 0.00 | 0.00 | 55 | 994.4 |
| 20260508033011 | 66 | 296 | 0.0 | 0.0 | 0.00 | 0.00 | 0.00 | 59 | 994.3 |
| 20260508031509 | 60 | 305 | 0.0 | 0.0 | 0.00 | 0.00 | 0.00 | 70 | 994.2 |
| 20260508030007 | 56 | 305 | 0.0 | 0.0 | 0.00 | 0.00 | 0.00 | 73 | 994.0 |
| 20260508024516 | 54 | 305 | 0.0 | 0.0 | 0.00 | 0.00 | 0.00 | 76 | 994.1 |
| 20260508023004 | 52 | 305 | 0.0 | 0.0 | 0.00 | 0.00 | 0.00 | 76 | 994.0 |
| 20260508021506 | 52 | 305 | 0.0 | 0.0 | 0.00 | 0.00 | 0.00 | 74 | 994.2 |
| 20260508020126 | 52 | 305 | 0.0 | 0.0 | 0.00 | 0.00 | 0.00 | 72 | 994.2 |
| 20260508014557 | 53 | 279 | 0.0 | 0.0 | 0.00 | 0.00 | 0.00 | 71 | 994.2 |
| 20260508013053 | 54 | 278 | 0.0 | 0.0 | 0.00 | 0.00 | 0.00 | 71 | 994.1 |
| 20260508011556 | 55 | 279 | 0.0 | 0.0 | 0.00 | 0.00 | 0.00 | 69 | 994.3 |
| 20260508010053 | 56 | 279 | 0.0 | 0.0 | 0.00 | 0.00 | 0.00 | 67 | 994.3 |
| 20260508004551 | 57 | 274 | 0.0 | 0.0 | 0.00 | 0.00 | 0.00 | 66 | 994.4 |
| 20260508003040 | 58 | 275 | 0.0 | 0.0 | 0.00 | 0.00 | 0.00 | 65 | 994.3 |
| 20260508001545 | 58 | 276 | 0.0 | 0.0 | 0.00 | 0.00 | 0.00 | 65 | 994.3 |
| 20260508000038 | 58 | 291 | 0.0 | 0.0 | 0.00 | 0.00 | 0.00 | 66 | 994.2 |
| 20260507234536 | 58 | 274 | 0.0 | 0.0 | 0.00 | 0.00 | 0.00 | 65 | 994.0 |
| 20260507233033 | 58 | 270 | 0.0 | 0.0 | 0.00 | 0.00 | 0.00 | 66 | 993.9 |
| 20260507231535 | 59 | 281 | 0.0 | 0.0 | 0.00 | 0.00 | 0.00 | 64 | 993.9 |
| 20260507230031 | 59 | 260 | 0.0 | 0.0 | 0.00 | 0.00 | 0.00 | 64 | 993.9 |
| 20260507224528 | 58 | 265 | 0.0 | 0.0 | 0.00 | 0.00 | 0.00 | 64 | 993.7 |
| 20260507223026 | 58 | 285 | 0.0 | 0.0 | 0.00 | 0.00 | 0.00 | 65 | 993.6 |
| 20260507221527 | 59 | 270 | 0.0 | 0.0 | 0.00 | 0.00 | 0.00 | 63 | 993.7 |
| 20260507220020 | 60 | 280 | 0.0 | 0.0 | 0.00 | 0.00 | 0.00 | 62 | 993.4 |
| 20260507214518 | 61 | 285 | 0.0 | 0.0 | 0.00 | 0.00 | 0.00 | 59 | 993.4 |
| 20260507213026 | 62 | 284 | 0.0 | 0.0 | 0.00 | 0.00 | 0.00 | 59 | 993.4 |
| 20260507211515 | 61 | 265 | 0.0 | 0.0 | 0.00 | 0.00 | 0.00 | 60 | 993.4 |
| 20260507210012 | 61 | 265 | 0.0 | 0.0 | 0.00 | 0.00 | 0.00 | 62 | 993.3 |
| 20260507204511 | 58 | 265 | 0.0 | 0.0 | 0.00 | 0.00 | 0.00 | 66 | 993.2 |
| 20260507203013 | 58 | 265 | 0.0 | 0.0 | 0.00 | 0.00 | 0.00 | 68 | 993.1 |
| 20260507201510 | 58 | 265 | 0.0 | 0.0 | 0.00 | 0.00 | 0.00 | 68 | 992.9 |
| 20260507200010 | 59 | 283 | 0.0 | 0.0 | 0.00 | 0.00 | 0.00 | 64 | 992.7 |
| 20260507194516 | 60 | 283 | 0.0 | 0.0 | 0.00 | 0.00 | 0.00 | 62 | 992.6 |
| 20260507193009 | 61 | 265 | 0.0 | 0.0 | 0.00 | 0.00 | 0.00 | 61 | 992.6 |
| 20260507191511 | 62 | 265 | 0.0 | 0.0 | 0.00 | 0.00 | 0.00 | 60 | 992.5 |
| 20260507190012 | 62 | 265 | 0.0 | 0.0 | 0.00 | 0.00 | 0.00 | 58 | 992.4 |
| 20260507184507 | 63 | 260 | 0.0 | 0.0 | 0.00 | 0.00 | 0.00 | 59 | 992.4 |
| 20260507183011 | 64 | 270 | 0.0 | 0.0 | 0.00 | 0.00 | 0.00 | 57 | 992.4 |
| 20260507181508 | 64 | 270 | 0.0 | 0.0 | 0.00 | 0.00 | 0.00 | 55 | 992.4 |
| 20260507180011 | 65 | 279 | 0.0 | 0.0 | 0.00 | 0.00 | 0.00 | 54 | 992.2 |
| 20260507174507 | 67 | 260 | 0.0 | 0.0 | 0.00 | 0.00 | 0.00 | 52 | 992.0 |
| 20260507173011 | 69 | 260 | 0.0 | 0.0 | 0.00 | 0.00 | 0.00 | 48 | 992.0 |
| 20260507171504 | 71 | 265 | 0.0 | 0.0 | 0.00 | 0.00 | 0.00 | 47 | 991.8 |
| 20260507170004 | 73 | 265 | 0.0 | 0.0 | 0.00 | 0.00 | 0.00 | 45 | 991.9 |
| 20260507164504 | 75 | 260 | 0.0 | 0.0 | 0.00 | 0.00 | 0.00 | 41 | 991.7 |
| 20260507163004 | 76 | 284 | 0.0 | 0.0 | 0.00 | 0.00 | 0.00 | 37 | 991.6 |
| 20260507161503 | 78 | 287 | 0.0 | 0.0 | 0.00 | 0.00 | 0.00 | 36 | 991.7 |
| 20260507160003 | 79 | 287 | 0.0 | 0.0 | 0.00 | 0.00 | 0.00 | 35 | 991.7 |
| 20260507154502 | 79 | 281 | 0.0 | 0.0 | 0.00 | 0.00 | 0.00 | 32 | 991.9 |
| 20260507153001 | 80 | 316 | 0.0 | 0.0 | 0.00 | 0.00 | 0.00 | 32 | 991.9 |
| 20260507151501 | 80 | 260 | 0.0 | 0.0 | 0.00 | 0.00 | 0.00 | 35 | 992.0 |
| 20260507150001 | 81 | 242 | 0.0 | 0.0 | 0.00 | 0.00 | 0.00 | 33 | 992.0 |
| 20260507144619 | 81 | 289 | 0.0 | 0.0 | 0.00 | 0.00 | 0.00 | 31 | 992.0 |
| 20260507143104 | 82 | 280 | 0.0 | 0.0 | 0.00 | 0.00 | 0.00 | 30 | 991.9 |
| 20260507141607 | 82 | 303 | 0.0 | 0.0 | 0.00 | 0.00 | 0.00 | 30 | 992.0 |
| 20260507140106 | 83 | 270 | 0.0 | 0.0 | 0.00 | 0.00 | 0.00 | 31 | 992.1 |
| 20260507134557 | 83 | 270 | 0.0 | 0.0 | 0.00 | 0.00 | 0.00 | 29 | 992.0 |
| 20260507133139 | 83 | 260 | 0.0 | 0.0 | 0.00 | 0.00 | 0.00 | 28 | 992.0 |